Volver al catálogo

SL-12 DEB

ActivoUNKNOWN
NORAD 36882·DEBRIS·🇷🇺 Russia

Lanzado Jan 10, 1989 desde Baikonur Cosmodrome

Loading…

Próximos Pases (próximas 24 horas)

TLE

ActualizadoSource: Space-Track

Época: Sep 13, 2026, 01:35 UTC

1 36882U 89001V   26256.06607763 -.00004132  00000-0 -22269-1 0  9995
2 36882  64.9016 242.2152 1847018  51.9992 323.3748 10.24768470565271

Sigue SL-12 DEB en tiempo real con AllMySat

Download on the App Store